QPF
0.02 0.03 0.03 0.02 0.02 0.05 0.11 0.14 0.11 0.08 0.04 0.03 0.03 0.04 0.05 0.05 0.05 0.07 0.06 0.04 0.03 0.03 0.03 0.04 0.05 0.06 0.05 0.05 0.07 0.08 0.07 0.06 0.06 0.06 0.06 0.04 0.03 0.02 0.02 0.01 0.02 0.03 0.03
0.02 0.03 0.03 0.03 0.02 0.03 0.04 0.05 0.05 0.06 0.06 0.04 0.03 0.03 0.04 0.05 0.04 0.05 0.06 0.05 0.03 0.05 0.04 0.03 0.04 0.04 0.05 0.04 0.06 0.07 0.08 0.07 0.07 0.08 0.07 0.06 0.06 0.04 0.02 0.01 0.02 0.02 0.03
0.02 0.02 0.02 0.02 0.02 0.02 0.02 0.03 0.04 0.04 0.05 0.05 0.04 0.03 0.04 0.03 0.02 0.04 0.06 0.05 0.04 0.08 0.08 0.06 0.05 0.05 0.06 0.06 0.06 0.06 0.05 0.05 0.06 0.07 0.08 0.08 0.08 0.06 0.04 0.03 0.03 0.03 0.03
0.02 0.02 0.02 0.02 0.02 0.02 0.02 0.02 0.02 0.02 0.04 0.06 0.05 0.04 0.05 0.06 0.05 0.05 0.06 0.05 0.06 0.07 0.07 0.07 0.05 0.05 0.06 0.07 0.06 0.07 0.06 0.06 0.05 0.05 0.05 0.06 0.06 0.08 0.06 0.04 0.04 0.04 0.03
0.02 0.02 0.02 0.02 0.03 0.02 0.03 0.02 0.03 0.03 0.05 0.06 0.04 0.03 0.04 0.06 0.07 0.05 0.06 0.05 0.05 0.05 0.05 0.05 0.06 0.06 0.06 0.05 0.05 0.07 0.08 0.09 0.07 0.06 0.07 0.06 0.06 0.06 0.05 0.03 0.02 0.02 0.02
0.03 0.02 0.03 0.03 0.03 0.03 0.03 0.03 0.04 0.04 0.05 0.05 0.03 0.03 0.06 0.07 0.08 0.06 0.07 0.05 0.05 0.04 0.04 0.03 0.04 0.04 0.04 0.04 0.04 0.05 0.06 0.07 0.06 0.05 0.05 0.04 0.04 0.03 0.03 0.03 0.02 0.01 0.01
0.03 0.03 0.03 0.04 0.03 0.02 0.02 0.02 0.03 0.03 0.03 0.03 0.04 0.05 0.07 0.07 0.07 0.08 0.07 0.06 0.06 0.04 0.03 0.02 0.02 0.03 0.04 0.04 0.05 0.05 0.05 0.06 0.05 0.04 0.03 0.03 0.03 0.02 0.02 0.02 0.01 0.01 0.02
0.03 0.02 0.02 0.03 0.03 0.02 0.02 0.03 0.03 0.02 0.02 0.03 0.05 0.07 0.08 0.06 0.06 0.07 0.07 0.07 0.07 0.05 0.03 0.03 0.02 0.02 0.02 0.03 0.04 0.04 0.05 0.05 0.05 0.03 0.03 0.03 0.03 0.02 0.03 0.03 0.02 0.02 0.02
0.03 0.02 0.01 0.02 0.02 0.01 0.02 0.02 0.03 0.03 0.03 0.05 0.07 0.09 0.08 0.06 0.06 0.06 0.05 0.06 0.06 0.05 0.03 0.03 0.03 0.02 0.01 0.02 0.02 0.03 0.04 0.04 0.04 0.02 0.02 0.02 0.02 0.02 0.02 0.03 0.03 0.03 0.03
0.04 0.03 0.01 0.02 0.02 0.01 0.01 0.01 0.01 0.02 0.04 0.08 0.09 0.07 0.07 0.06 0.05 0.05 0.04 0.04 0.05 0.05 0.03 0.02 0.03 0.03 0.02 0.02 0.02 0.02 0.03 0.04 0.03 0.02 0.02 0.02 0.01 0.01 0.02 0.02 0.02 0.02 0.02
0.05 0.03 0.02 0.02 0.01 0.01 0.01 0.01 0.02 0.03 0.05 0.09 0.09 0.05 0.05 0.05 0.05 0.05 0.05 0.06 0.06 0.05 0.03 0.02 0.02 0.02 0.02 0.01 0.02 0.03 0.03 0.03 0.03 0.02 0.02 0.02 0.02 0.02 0.02 0.02 0.02 0.02 0.02
0.05 0.03 0.02 0.02 0.01 0.01 0.01 0.02 0.03 0.03 0.06 0.09 0.09 0.08 0.07 0.05 0.05 0.06 0.05 0.05 0.05 0.04 0.03 0.03 0.02 0.02 0.02 0.02 0.02 0.03 0.03 0.03 0.02 0.01 0.01 0.02 0.02 0.02 0.02 0.02 0.02 0.03 0.03
0.04 0.02 0.02 0.02 0.01 0.01 0.02 0.03 0.03 0.02 0.06 0.10 0.10 0.09 0.07 0.06 0.07 0.06 0.04 0.04 0.04 0.03 0.03 0.02 0.03 0.03 0.03 0.03 0.03 0.03 0.03 0.03 0.03 0.03 0.03 0.03 0.03 0.03 0.03 0.03 0.03 0.03 0.03
0.03 0.02 0.02 0.02 0.02 0.02 0.02 0.03 0.03 0.03 0.06 0.11 0.10 0.10 0.09 0.07 0.06 0.06 0.05 0.04 0.03 0.03 0.02 0.02 0.03 0.04 0.04 0.03 0.03 0.03 0.03 0.03 0.02 0.02 0.03 0.03 0.03 0.04 0.04 0.05 0.05 0.05 0.04
0.03 0.02 0.02 0.02 0.02 0.02 0.01 0.02 0.03 0.06 0.08 0.07 0.07 0.08 0.07 0.06 0.04 0.04 0.05 0.05 0.04 0.03 0.02 0.02 0.02 0.03 0.03 0.03 0.02 0.02 0.02 0.02 0.01 0.01 0.01 0.02 0.03 0.04 0.03 0.03 0.04 0.05 0.05
0.02 0.03 0.02 0.01 0.02 0.03 0.02 0.02 0.04 0.07 0.07 0.06 0.05 0.05 0.06 0.06 0.04 0.03 0.03 0.03 0.03 0.03 0.03 0.03 0.03 0.02 0.02 0.02 0.02 0.01 0.02 0.02 0.01 0.01 0.01 0.02 0.03 0.04 0.03 0.03 0.03 0.04 0.04
0.02 0.03 0.02 0.02 0.03 0.03 0.03 0.03 0.05 0.07 0.06 0.06 0.05 0.05 0.05 0.05 0.03 0.02 0.02 0.03 0.04 0.04 0.05 0.04 0.04 0.03 0.02 0.02 0.02 0.02 0.03 0.02 0.02 0.02 0.02 0.02 0.03 0.04 0.05 0.04 0.04 0.04 0.03
0.02 0.02 0.02 0.03 0.02 0.02 0.03 0.03 0.04 0.05 0.05 0.06 0.06 0.05 0.04 0.03 0.02 0.02 0.02 0.02 0.03 0.04 0.05 0.05 0.05 0.04 0.04 0.03 0.02 0.03 0.04 0.03 0.03 0.03 0.03 0.03 0.04 0.05 0.06 0.07 0.06 0.05 0.04
0.02 0.02 0.02 0.03 0.02 0.02 0.03 0.04 0.03 0.04 0.04 0.05 0.04 0.02 0.02 0.02 0.02 0.03 0.03 0.03 0.02 0.01 0.01 0.02 0.03 0.04 0.06 0.05 0.05 0.04 0.04 0.04 0.03 0.03 0.03 0.04 0.04 0.05 0.06 0.06 0.06 0.05 0.04
0.04 0.05 0.05 0.02 0.02 0.03 0.03 0.04 0.02 0.02 0.02 0.03 0.03 0.02 0.01 0.01 0.01 0.02 0.02 0.02 0.01 0.01 0.01 0.01 0.01 0.02 0.04 0.04 0.03 0.03 0.03 0.04 0.04 0.04 0.04 0.04 0.04 0.04 0.05 0.05 0.04 0.04 0.02
0.03 0.04 0.03 0.02 0.03 0.02 0.02 0.03 0.02 0.02 0.01 0.01 0.02 0.01 0.01 0.01 0.01 0.01 0.01 0.01 0.01 0.01 0.02 0.02 0.02 0.01 0.02 0.02 0.01 0.02 0.03 0.04 0.05 0.06 0.06 0.05 0.05 0.05 0.05 0.04 0.04 0.03 0.02
0.02 0.02 0.03 0.04 0.04 0.03 0.02 0.01 0.01 0.01 0.01 0.01 0.01 0.01 0.01 0.01 0.01 0.00 0.01 0.01 0.02 0.02 0.02 0.02 0.02 0.01 0.01 0.02 0.02 0.03 0.03 0.05 0.05 0.05 0.05 0.05 0.05 0.04 0.04 0.03 0.03 0.03 0.02
0.02 0.02 0.02 0.03 0.03 0.02 0.01 0.01 0.00 0.01 0.01 0.01 0.01 0.01 0.01 0.01 0.01 0.01 0.01 0.01 0.02 0.02 0.02 0.02 0.03 0.03 0.02 0.02 0.03 0.04 0.06 0.06 0.06 0.06 0.05 0.05 0.04 0.03 0.02 0.02 0.03 0.02 0.02
0.02 0.02 0.02 0.02 0.01 0.01 0.01 0.00 0.00 0.01 0.01 0.01 0.01 0.01 0.01 0.01 0.01 0.02 0.01 0.01 0.01 0.01 0.01 0.01 0.02 0.03 0.03 0.04 0.04 0.05 0.06 0.07 0.07 0.06 0.05 0.04 0.03 0.02 0.02 0.02 0.03 0.02 0.02
0.02 0.02 0.02 0.01 0.01 0.01 0.00 0.00 0.00 0.01 0.01 0.01 0.01 0.01 0.01 0.02 0.02 0.02 0.02 0.02 0.02 0.01 0.01 0.01 0.01 0.02 0.03 0.04 0.05 0.05 0.06 0.07 0.06 0.05 0.04 0.03 0.03 0.02 0.02 0.02 0.02 0.02 0.01
0.01 0.01 0.01 0.01 0.01 0.01 0.00 0.00 0.00 0.01 0.01 0.01 0.01 0.01 0.01 0.01 0.01 0.01 0.02 0.02 0.03 0.02 0.02 0.01 0.01 0.02 0.05 0.06 0.07 0.06 0.05 0.05 0.04 0.03 0.03 0.03 0.02 0.02 0.02 0.01 0.01 0.01 0.01
MSLP
1016.05 1016.01 1015.96 1015.88 1015.78 1015.63 1015.43 1015.18 1014.88 1014.54 1014.18 1013.82 1013.49 1013.21 1013.00 1012.85 1012.76 1012.71 1012.68 1012.64 1012.58 1012.51 1012.42 1012.34 1012.30 1012.32 1012.42 1012.58 1012.80 1013.04 1013.26 1013.42 1013.47 1013.42 1013.25 1012.99 1012.67 1012.33 1012.00 1011.72 1011.49 1011.33 1011.22
1016.05 1016.05 1016.02 1015.96 1015.85 1015.69 1015.48 1015.23 1014.94 1014.62 1014.29 1013.97 1013.68 1013.43 1013.23 1013.08 1012.98 1012.92 1012.86 1012.80 1012.73 1012.65 1012.56 1012.48 1012.44 1012.45 1012.51 1012.64 1012.82 1013.01 1013.20 1013.34 1013.42 1013.40 1013.30 1013.12 1012.87 1012.59 1012.30 1012.02 1011.76 1011.53 1011.33
1016.01 1016.05 1016.05 1016.00 1015.89 1015.73 1015.51 1015.26 1014.98 1014.68 1014.37 1014.08 1013.82 1013.58 1013.39 1013.24 1013.13 1013.05 1012.98 1012.92 1012.86 1012.80 1012.73 1012.68 1012.65 1012.65 1012.70 1012.79 1012.92 1013.07 1013.22 1013.35 1013.43 1013.46 1013.42 1013.33 1013.17 1012.97 1012.72 1012.45 1012.17 1011.87 1011.58
1015.91 1016.00 1016.03 1015.99 1015.89 1015.72 1015.50 1015.25 1014.97 1014.68 1014.40 1014.13 1013.88 1013.67 1013.48 1013.33 1013.21 1013.12 1013.05 1013.01 1012.97 1012.94 1012.92 1012.91 1012.91 1012.93 1012.97 1013.04 1013.12 1013.23 1013.34 1013.45 1013.54 1013.61 1013.64 1013.62 1013.55 1013.42 1013.23 1012.97 1012.65 1012.29 1011.91
1015.78 1015.91 1015.96 1015.93 1015.83 1015.65 1015.43 1015.17 1014.90 1014.62 1014.36 1014.11 1013.88 1013.67 1013.49 1013.34 1013.22 1013.13 1013.08 1013.05 1013.05 1013.07 1013.10 1013.14 1013.19 1013.23 1013.28 1013.33 1013.39 1013.46 1013.55 1013.64 1013.74 1013.83 1013.91 1013.96 1013.96 1013.89 1013.73 1013.48 1013.15 1012.73 1012.26
1015.63 1015.78 1015.85 1015.82 1015.70 1015.51 1015.28 1015.02 1014.75 1014.48 1014.24 1014.01 1013.80 1013.61 1013.44 1013.29 1013.17 1013.09 1013.05 1013.04 1013.08 1013.15 1013.23 1013.32 1013.41 1013.49 1013.56 1013.61 1013.66 1013.71 1013.77 1013.85 1013.95 1014.06 1014.17 1014.27 1014.31 1014.28 1014.15 1013.91 1013.55 1013.09 1012.55
1015.48 1015.64 1015.69 1015.64 1015.51 1015.30 1015.06 1014.79 1014.52 1014.27 1014.05 1013.84 1013.66 1013.49 1013.33 1013.20 1013.09 1013.01 1012.98 1013.00 1013.06 1013.16 1013.28 1013.41 1013.54 1013.65 1013.74 1013.80 1013.84 1013.88 1013.93 1014.00 1014.10 1014.22 1014.35 1014.46 1014.53 1014.52 1014.41 1014.17 1013.80 1013.32 1012.73
1015.35 1015.48 1015.51 1015.44 1015.28 1015.05 1014.78 1014.51 1014.25 1014.02 1013.82 1013.65 1013.49 1013.35 1013.21 1013.09 1012.99 1012.92 1012.89 1012.91 1012.98 1013.09 1013.24 1013.39 1013.55 1013.68 1013.78 1013.85 1013.90 1013.94 1013.98 1014.04 1014.13 1014.25 1014.38 1014.50 1014.57 1014.57 1014.46 1014.23 1013.86 1013.37 1012.78
1015.24 1015.34 1015.33 1015.23 1015.04 1014.79 1014.51 1014.24 1013.99 1013.78 1013.61 1013.46 1013.34 1013.23 1013.12 1013.01 1012.91 1012.84 1012.80 1012.81 1012.87 1012.98 1013.12 1013.28 1013.44 1013.59 1013.70 1013.78 1013.83 1013.87 1013.91 1013.96 1014.04 1014.14 1014.26 1014.36 1014.43 1014.43 1014.33 1014.10 1013.75 1013.27 1012.70
1015.16 1015.22 1015.18 1015.04 1014.83 1014.57 1014.29 1014.02 1013.79 1013.60 1013.46 1013.35 1013.26 1013.17 1013.08 1012.99 1012.89 1012.81 1012.76 1012.75 1012.79 1012.87 1012.99 1013.14 1013.29 1013.42 1013.54 1013.62 1013.67 1013.71 1013.74 1013.78 1013.84 1013.92 1014.02 1014.11 1014.16 1014.15 1014.05 1013.84 1013.52 1013.08 1012.55
1015.09 1015.12 1015.06 1014.91 1014.69 1014.43 1014.16 1013.91 1013.70 1013.54 1013.43 1013.35 1013.28 1013.22 1013.15 1013.06 1012.96 1012.87 1012.79 1012.75 1012.76 1012.81 1012.90 1013.02 1013.15 1013.27 1013.37 1013.45 1013.50 1013.53 1013.55 1013.57 1013.62 1013.67 1013.74 1013.80 1013.84 1013.82 1013.73 1013.54 1013.26 1012.87 1012.39
1015.01 1015.03 1014.97 1014.82 1014.62 1014.38 1014.14 1013.92 1013.74 1013.61 1013.53 1013.47 1013.43 1013.38 1013.31 1013.22 1013.12 1013.01 1012.91 1012.84 1012.82 1012.83 1012.89 1012.98 1013.09 1013.19 1013.28 1013.35 1013.38 1013.40 1013.41 1013.41 1013.43 1013.46 1013.50 1013.53 1013.55 1013.53 1013.45 1013.29 1013.04 1012.71 1012.30
1014.91 1014.94 1014.89 1014.77 1014.61 1014.41 1014.21 1014.04 1013.90 1013.80 1013.74 1013.71 1013.67 1013.63 1013.56 1013.47 1013.35 1013.22 1013.11 1013.01 1012.96 1012.95 1012.98 1013.04 1013.13 1013.21 1013.29 1013.34 1013.37 1013.37 1013.36 1013.34 1013.33 1013.33 1013.34 1013.35 1013.35 1013.32 1013.25 1013.12 1012.92 1012.64 1012.29
1014.76 1014.82 1014.81 1014.74 1014.62 1014.48 1014.34 1014.21 1014.12 1014.05 1014.02 1014.00 1013.97 1013.92 1013.85 1013.74 1013.61 1013.47 1013.33 1013.21 1013.14 1013.11 1013.12 1013.17 1013.24 1013.32 1013.38 1013.42 1013.43 1013.42 1013.39 1013.35 1013.31 1013.28 1013.27 1013.26 1013.24 1013.21 1013.15 1013.04 1012.88 1012.65 1012.36
1014.57 1014.67 1014.70 1014.68 1014.62 1014.54 1014.46 1014.39 1014.33 1014.31 1014.29 1014.28 1014.25 1014.20 1014.11 1013.99 1013.84 1013.68 1013.52 1013.39 1013.31 1013.26 1013.27 1013.30 1013.37 1013.43 1013.49 1013.52 1013.52 1013.50 1013.45 1013.40 1013.34 1013.29 1013.25 1013.23 1013.20 1013.17 1013.12 1013.03 1012.89 1012.70 1012.46
1014.35 1014.48 1014.56 1014.58 1014.58 1014.55 1014.52 1014.50 1014.49 1014.49 1014.49 1014.49 1014.46 1014.40 1014.29 1014.15 1013.99 1013.81 1013.64 1013.50 1013.40 1013.34 1013.34 1013.37 1013.43 1013.49 1013.54 1013.57 1013.57 1013.54 1013.49 1013.42 1013.35 1013.29 1013.24 1013.21 1013.18 1013.15 1013.09 1013.01 1012.90 1012.73 1012.53
1014.10 1014.26 1014.37 1014.43 1014.47 1014.48 1014.49 1014.51 1014.53 1014.56 1014.58 1014.58 1014.56 1014.49 1014.37 1014.22 1014.03 1013.83 1013.65 1013.49 1013.38 1013.31 1013.30 1013.32 1013.38 1013.44 1013.49 1013.52 1013.52 1013.49 1013.44 1013.37 1013.31 1013.24 1013.19 1013.15 1013.12 1013.08 1013.03 1012.96 1012.85 1012.70 1012.52
1013.86 1014.03 1014.16 1014.24 1014.29 1014.32 1014.36 1014.40 1014.45 1014.50 1014.54 1014.55 1014.53 1014.46 1014.34 1014.17 1013.98 1013.76 1013.56 1013.38 1013.25 1013.17 1013.14 1013.16 1013.20 1013.26 1013.32 1013.35 1013.36 1013.34 1013.29 1013.24 1013.17 1013.12 1013.07 1013.03 1013.00 1012.96 1012.91 1012.83 1012.72 1012.58 1012.40
1013.65 1013.82 1013.94 1014.01 1014.07 1014.10 1014.14 1014.20 1014.26 1014.33 1014.38 1014.42 1014.41 1014.35 1014.23 1014.06 1013.86 1013.63 1013.41 1013.21 1013.06 1012.96 1012.91 1012.91 1012.95 1013.00 1013.05 1013.09 1013.11 1013.11 1013.08 1013.03 1012.98 1012.93 1012.89 1012.86 1012.82 1012.78 1012.72 1012.64 1012.52 1012.38 1012.20
1013.47 1013.63 1013.73 1013.79 1013.83 1013.85 1013.89 1013.94 1014.01 1014.09 1014.17 1014.22 1014.23 1014.19 1014.09 1013.93 1013.73 1013.50 1013.26 1013.05 1012.88 1012.75 1012.68 1012.67 1012.69 1012.73 1012.78 1012.83 1012.86 1012.86 1012.85 1012.82 1012.78 1012.74 1012.70 1012.66 1012.62 1012.57 1012.50 1012.41 1012.28 1012.13 1011.95
1013.31 1013.46 1013.55 1013.58 1013.60 1013.60 1013.62 1013.67 1013.74 1013.84 1013.93 1014.01 1014.04 1014.03 1013.96 1013.81 1013.62 1013.40 1013.16 1012.94 1012.75 1012.61 1012.52 1012.49 1012.50 1012.53 1012.58 1012.62 1012.66 1012.67 1012.66 1012.64 1012.61 1012.57 1012.52 1012.48 1012.42 1012.36 1012.27 1012.16 1012.03 1011.87 1011.69
1013.15 1013.29 1013.37 1013.39 1013.39 1013.38 1013.39 1013.43 1013.50 1013.60 1013.71 1013.81 1013.88 1013.89 1013.84 1013.73 1013.56 1013.35 1013.12 1012.90 1012.71 1012.56 1012.46 1012.41 1012.41 1012.44 1012.48 1012.52 1012.55 1012.56 1012.55 1012.53 1012.48 1012.43 1012.37 1012.31 1012.24 1012.15 1012.05 1011.92 1011.78 1011.62 1011.44
1012.93 1013.09 1013.17 1013.20 1013.19 1013.18 1013.19 1013.22 1013.30 1013.40 1013.52 1013.64 1013.72 1013.76 1013.73 1013.65 1013.50 1013.32 1013.11 1012.90 1012.72 1012.57 1012.47 1012.42 1012.41 1012.43 1012.47 1012.50 1012.52 1012.52 1012.50 1012.45 1012.39 1012.32 1012.23 1012.14 1012.04 1011.93 1011.81 1011.68 1011.54 1011.39 1011.23
1012.64 1012.83 1012.93 1012.98 1012.99 1012.99 1013.00 1013.05 1013.12 1013.23 1013.35 1013.47 1013.56 1013.60 1013.59 1013.52 1013.40 1013.24 1013.05 1012.87 1012.71 1012.58 1012.49 1012.44 1012.44 1012.45 1012.48 1012.50 1012.50 1012.48 1012.44 1012.36 1012.27 1012.16 1012.04 1011.92 1011.80 1011.67 1011.54 1011.41 1011.28 1011.15 1011.02
1012.25 1012.47 1012.61 1012.70 1012.75 1012.78 1012.81 1012.87 1012.95 1013.05 1013.16 1013.26 1013.34 1013.37 1013.36 1013.30 1013.19 1013.04 1012.88 1012.73 1012.59 1012.48 1012.41 1012.38 1012.38 1012.40 1012.41 1012.42 1012.40 1012.35 1012.28 1012.17 1012.04 1011.89 1011.74 1011.60 1011.45 1011.32 1011.20 1011.09 1010.98 1010.89 1010.80
1011.73 1011.99 1012.18 1012.32 1012.42 1012.50 1012.57 1012.64 1012.73 1012.82 1012.90 1012.97 1013.02 1013.03 1013.00 1012.92 1012.81 1012.67 1012.53 1012.40 1012.29 1012.21 1012.16 1012.15 1012.16 1012.17 1012.18 1012.17 1012.13 1012.05 1011.94 1011.80 1011.64 1011.47 1011.30 1011.13 1010.99 1010.87 1010.77 1010.69 1010.64 1010.59 1010.56
Thickness
5726 5726 5725 5724 5723 5721 5718 5715 5713 5711 5710 5710 5708 5707 5706 5706 5705 5703 5701 5700 5700 5700 5699 5701 5699 5698 5698 5697 5697 5696 5695 5694 5695 5694 5693 5695 5696 5696 5696 5696 5696 5696 5695
5720 5720 5719 5719 5718 5716 5715 5713 5711 5709 5708 5707 5706 5704 5703 5703 5702 5700 5699 5698 5697 5697 5698 5696 5696 5696 5694 5693 5692 5691 5691 5691 5691 5690 5688 5687 5689 5691 5694 5693 5692 5692 5692
5715 5715 5714 5714 5714 5711 5711 5711 5708 5706 5706 5705 5705 5703 5701 5700 5700 5698 5697 5696 5695 5694 5693 5693 5693 5693 5693 5691 5689 5689 5687 5686 5687 5687 5686 5684 5684 5687 5689 5688 5689 5687 5687
5713 5712 5712 5711 5710 5709 5709 5708 5706 5704 5703 5702 5701 5699 5697 5697 5697 5696 5695 5694 5692 5692 5690 5690 5689 5689 5690 5688 5688 5686 5684 5682 5682 5682 5682 5683 5684 5680 5682 5684 5685 5684 5682
5711 5709 5709 5709 5708 5708 5707 5706 5703 5701 5700 5700 5698 5697 5697 5696 5695 5694 5692 5691 5691 5689 5687 5687 5686 5685 5686 5685 5684 5682 5681 5680 5679 5679 5678 5678 5679 5679 5677 5676 5678 5679 5679
5708 5707 5707 5707 5706 5705 5704 5703 5700 5699 5698 5697 5696 5695 5694 5693 5691 5690 5689 5689 5688 5687 5685 5684 5682 5682 5682 5681 5680 5679 5678 5676 5675 5675 5675 5675 5674 5674 5673 5671 5671 5672 5674
5706 5705 5704 5703 5702 5701 5701 5700 5698 5696 5696 5695 5694 5693 5692 5690 5689 5688 5687 5685 5685 5684 5682 5681 5679 5679 5678 5677 5676 5674 5674 5672 5670 5669 5670 5670 5671 5671 5670 5668 5667 5667 5669
5705 5703 5702 5701 5701 5700 5699 5698 5697 5695 5695 5695 5693 5692 5690 5690 5689 5686 5685 5683 5682 5681 5680 5678 5677 5675 5674 5673 5672 5671 5669 5667 5666 5665 5663 5663 5664 5665 5664 5663 5662 5661 5663
5702 5703 5701 5700 5700 5699 5697 5696 5695 5694 5694 5693 5692 5690 5689 5687 5686 5684 5682 5681 5680 5679 5676 5675 5673 5672 5670 5669 5668 5667 5665 5663 5662 5661 5659 5658 5659 5659 5660 5659 5659 5657 5655
5702 5702 5700 5699 5699 5698 5696 5695 5694 5693 5693 5692 5691 5690 5688 5686 5684 5682 5680 5678 5677 5675 5673 5671 5670 5668 5666 5665 5664 5663 5661 5659 5657 5655 5653 5653 5655 5655 5655 5655 5655 5654 5652
5702 5701 5699 5699 5698 5697 5695 5693 5693 5692 5691 5690 5688 5687 5686 5684 5682 5680 5678 5676 5674 5672 5670 5669 5667 5665 5664 5662 5660 5659 5657 5655 5653 5651 5651 5649 5648 5650 5651 5651 5650 5650 5648
5702 5701 5700 5698 5697 5695 5694 5692 5692 5690 5689 5688 5686 5684 5683 5681 5679 5677 5675 5673 5671 5669 5667 5666 5664 5662 5661 5659 5657 5655 5654 5651 5649 5648 5647 5646 5646 5644 5645 5644 5644 5643 5641
5701 5700 5699 5697 5695 5694 5692 5691 5690 5689 5688 5686 5684 5682 5680 5678 5676 5674 5672 5670 5668 5666 5665 5663 5661 5660 5658 5656 5654 5652 5650 5649 5647 5646 5644 5643 5642 5640 5641 5639 5639 5639 5638
5699 5698 5696 5695 5694 5692 5690 5689 5688 5686 5685 5684 5682 5680 5677 5675 5673 5671 5669 5668 5666 5664 5662 5661 5659 5657 5656 5654 5651 5649 5647 5645 5644 5642 5641 5640 5639 5637 5636 5635 5634 5633 5632
5697 5695 5694 5693 5692 5690 5689 5687 5685 5684 5682 5681 5679 5677 5675 5672 5671 5669 5667 5665 5663 5662 5659 5658 5656 5654 5653 5651 5648 5646 5645 5642 5640 5639 5638 5637 5634 5631 5630 5631 5630 5628 5627
5696 5695 5694 5693 5691 5689 5687 5685 5684 5682 5680 5678 5676 5675 5673 5671 5669 5667 5665 5663 5661 5659 5657 5655 5653 5651 5651 5646 5642 5641 5641 5639 5637 5636 5635 5634 5632 5629 5626 5624 5622 5620 5620
5696 5694 5693 5691 5690 5688 5686 5684 5682 5680 5678 5676 5674 5673 5671 5669 5667 5666 5663 5660 5658 5656 5654 5652 5650 5648 5645 5641 5638 5635 5635 5636 5634 5632 5631 5633 5633 5628 5628 5624 5620 5617 5614
5695 5694 5693 5691 5690 5688 5686 5683 5681 5678 5676 5674 5673 5671 5669 5667 5665 5663 5660 5658 5656 5653 5651 5650 5648 5645 5642 5637 5634 5632 5633 5633 5632 5630 5629 5628 5627 5626 5623 5622 5621 5618 5615
5694 5693 5692 5692 5689 5687 5685 5682 5679 5678 5675 5673 5671 5670 5668 5665 5662 5660 5657 5655 5653 5651 5649 5648 5646 5643 5639 5634 5631 5628 5632 5632 5630 5629 5627 5625 5624 5619 5616 5616 5616 5615 5613
5694 5692 5692 5691 5688 5686 5684 5680 5678 5676 5674 5672 5671 5669 5666 5663 5660 5658 5655 5654 5651 5649 5648 5646 5644 5641 5638 5632 5629 5626 5632 5630 5630 5628 5626 5622 5619 5615 5612 5612 5612 5610 5609
5692 5691 5690 5687 5686 5684 5682 5678 5677 5674 5673 5672 5670 5667 5664 5661 5658 5656 5653 5652 5650 5647 5646 5644 5642 5639 5636 5632 5628 5625 5627 5629 5628 5627 5626 5623 5615 5612 5609 5607 5607 5605 5602
5689 5688 5686 5684 5684 5682 5680 5677 5674 5674 5672 5669 5667 5664 5661 5660 5657 5653 5651 5649 5647 5645 5643 5642 5640 5640 5636 5632 5628 5624 5622 5621 5623 5623 5623 5620 5612 5609 5606 5604 5602 5599 5597
5686 5685 5683 5682 5681 5680 5679 5676 5674 5672 5670 5666 5664 5661 5659 5656 5654 5651 5649 5647 5646 5645 5644 5643 5641 5639 5637 5633 5627 5623 5620 5618 5618 5620 5616 5612 5609 5607 5606 5601 5599 5597 5598
5683 5682 5681 5679 5678 5678 5677 5675 5673 5670 5667 5664 5661 5659 5656 5654 5651 5649 5649 5647 5645 5644 5643 5641 5639 5637 5635 5633 5629 5626 5622 5618 5617 5618 5615 5610 5607 5605 5603 5602 5600 5600 5599
5680 5679 5678 5677 5676 5676 5675 5674 5671 5668 5665 5662 5659 5657 5656 5653 5650 5648 5645 5644 5641 5640 5637 5637 5637 5634 5631 5626 5620 5621 5621 5620 5618 5615 5615 5615 5613 5610 5608 5605 5603 5601 5598
5677 5676 5675 5675 5675 5674 5673 5671 5669 5666 5663 5660 5657 5657 5655 5653 5651 5648 5644 5638 5637 5634 5631 5629 5627 5628 5623 5619 5616 5614 5612 5610 5609 5610 5614 5613 5611 5609 5607 5605 5602 5600 5597